| time (UTC) | temp F | wind direction | speed MPH | gust MPH | rain 1hr in | rain 24hr in | rain mn in | humidity % | barometer mb |
| 20260507101544 | 41 | 0 | 0.0 | 0.0 | 0.00 | 0.00 | 0.00 | 94 | 1019.7 |
| 20260507100055 | 41 | 0 | 0.0 | 0.0 | 0.00 | 0.00 | 0.00 | 94 | 1019.8 |
| 20260507094550 | 41 | 0 | 0.0 | 0.0 | 0.00 | 0.00 | 0.00 | 94 | 1019.8 |
| 20260507093115 | 41 | 0 | 0.0 | 0.0 | 0.00 | 0.00 | 0.00 | 94 | 1019.7 |
| 20260507091550 | 40 | 0 | 0.0 | 0.0 | 0.00 | 0.00 | 0.00 | 94 | 1019.9 |
| 20260507090053 | 39 | 0 | 0.0 | 0.0 | 0.00 | 0.00 | 0.00 | 94 | 1019.8 |
| 20260507084549 | 38 | 0 | 0.0 | 0.0 | 0.00 | 0.01 | 0.00 | 93 | 1019.8 |
| 20260507083047 | 38 | 0 | 0.0 | 0.0 | 0.00 | 0.01 | 0.00 | 93 | 1019.8 |
| 20260507081547 | 38 | 0 | 0.0 | 0.0 | 0.00 | 0.01 | 0.00 | 92 | 1019.9 |
| 20260507080054 | 38 | 0 | 0.0 | 0.0 | 0.00 | 0.01 | 0.00 | 93 | 1019.9 |
| 20260507074543 | 38 | 0 | 0.0 | 0.0 | 0.00 | 0.01 | 0.00 | 92 | 1019.7 |
| 20260507073051 | 38 | 0 | 0.0 | 0.0 | 0.00 | 0.01 | 0.00 | 92 | 1019.9 |
| 20260507071548 | 39 | 0 | 0.0 | 0.0 | 0.00 | 0.01 | 0.00 | 92 | 1020.0 |
| 20260507064550 | 38 | 0 | 0.0 | 0.0 | 0.00 | 0.01 | 0.00 | 91 | 1020.2 |
| 20260507063043 | 39 | 0 | 0.0 | 0.0 | 0.00 | 0.01 | 0.00 | 90 | 1020.3 |
| 20260507061547 | 39 | 0 | 0.0 | 0.0 | 0.00 | 0.01 | 0.00 | 90 | 1020.3 |
| 20260507060038 | 40 | 0 | 0.0 | 0.0 | 0.00 | 0.01 | 0.00 | 90 | 1020.4 |
| 20260507054602 | 40 | 0 | 0.0 | 0.0 | 0.00 | 0.01 | 0.00 | 89 | 1020.2 |
| 20260507053102 | 41 | 0 | 0.0 | 0.0 | 0.00 | 0.01 | 0.00 | 89 | 1020.3 |
| 20260507051555 | 41 | 0 | 0.0 | 0.0 | 0.00 | 0.01 | 0.00 | 87 | 1020.3 |
| 20260507050055 | 41 | 0 | 0.0 | 0.0 | 0.00 | 0.01 | 0.00 | 86 | 1020.4 |
| 20260507044556 | 42 | 0 | 0.0 | 0.0 | 0.00 | 0.01 | 0.01 | 85 | 1020.5 |
| 20260507043047 | 43 | 0 | 0.0 | 0.0 | 0.00 | 0.01 | 0.01 | 85 | 1020.3 |
| 20260507041601 | 43 | 0 | 0.0 | 0.0 | 0.00 | 0.01 | 0.01 | 85 | 1020.2 |
| 20260507040054 | 44 | 0 | 0.0 | 0.0 | 0.00 | 0.01 | 0.01 | 84 | 1020.2 |
| 20260507034549 | 44 | 0 | 0.0 | 0.0 | 0.00 | 0.01 | 0.01 | 83 | 1020.2 |
| 20260507033048 | 45 | 0 | 0.0 | 0.0 | 0.00 | 0.01 | 0.01 | 82 | 1020.1 |
| 20260507031545 | 45 | 0 | 0.0 | 0.0 | 0.00 | 0.01 | 0.01 | 81 | 1020.1 |
| 20260507030048 | 46 | 0 | 0.0 | 0.0 | 0.00 | 0.01 | 0.01 | 80 | 1020.1 |
| 20260507024546 | 47 | 0 | 0.0 | 0.0 | 0.00 | 0.01 | 0.01 | 78 | 1020.1 |
| 20260507023040 | 48 | 0 | 0.0 | 0.0 | 0.00 | 0.01 | 0.01 | 74 | 1019.9 |
| 20260507021539 | 49 | 0 | 0.0 | 0.0 | 0.00 | 0.01 | 0.01 | 71 | 1019.6 |
| 20260507020045 | 50 | 0 | 0.0 | 0.0 | 0.00 | 0.01 | 0.01 | 68 | 1019.3 |
| 20260507014606 | 52 | 0 | 0.0 | 1.0 | 0.00 | 0.01 | 0.01 | 63 | 1019.3 |
| 20260507013047 | 53 | 0 | 1.0 | 3.0 | 0.00 | 0.01 | 0.01 | 60 | 1019.2 |
| 20260507011554 | 55 | 0 | 0.0 | 3.0 | 0.00 | 0.01 | 0.01 | 58 | 1018.9 |
| 20260507010044 | 56 | 0 | 1.0 | 3.0 | 0.00 | 0.01 | 0.01 | 56 | 1018.9 |
| 20260507004549 | 58 | 0 | 0.0 | 1.0 | 0.00 | 0.02 | 0.01 | 57 | 1018.7 |
| 20260507003046 | 59 | 0 | 0.0 | 2.0 | 0.00 | 0.02 | 0.01 | 55 | 1018.6 |
| 20260507001558 | 58 | 39 | 0.0 | 6.0 | 0.00 | 0.02 | 0.01 | 54 | 1018.4 |
| 20260507000057 | 59 | 15 | 4.0 | 8.0 | 0.00 | 0.02 | 0.01 | 51 | 1018.0 |
| 20260506234604 | 60 | 30 | 3.0 | 7.0 | 0.00 | 0.04 | 0.01 | 50 | 1017.9 |
| 20260506233044 | 60 | 39 | 3.0 | 11.0 | 0.00 | 0.04 | 0.01 | 50 | 1017.7 |
| 20260506231548 | 61 | 31 | 5.0 | 11.0 | 0.00 | 0.04 | 0.01 | 51 | 1017.7 |
| 20260506230100 | 60 | 39 | 6.0 | 14.0 | 0.00 | 0.04 | 0.01 | 50 | 1017.4 |
| 20260506224549 | 61 | 26 | 5.0 | 14.0 | 0.00 | 0.04 | 0.01 | 53 | 1017.7 |
| 20260506223039 | 61 | 35 | 4.0 | 12.0 | 0.00 | 0.04 | 0.01 | 50 | 1017.6 |
| 20260506221555 | 61 | 29 | 3.0 | 11.0 | 0.00 | 0.04 | 0.01 | 51 | 1017.6 |
| 20260506220048 | 61 | 123 | 3.0 | 10.0 | 0.00 | 0.04 | 0.01 | 51 | 1017.8 |
| 20260506214547 | 61 | 44 | 4.0 | 9.0 | 0.00 | 0.04 | 0.01 | 49 | 1017.8 |
| 20260506213050 | 61 | 94 | 3.0 | 10.0 | 0.00 | 0.04 | 0.01 | 49 | 1017.8 |
| 20260506211552 | 62 | 30 | 5.0 | 13.0 | 0.00 | 0.04 | 0.01 | 52 | 1018.0 |
| 20260506210047 | 62 | 34 | 3.0 | 11.0 | 0.00 | 0.04 | 0.01 | 51 | 1017.7 |
| 20260506204539 | 62 | 27 | 2.0 | 9.0 | 0.00 | 0.04 | 0.01 | 52 | 1017.9 |
| 20260506203049 | 60 | 345 | 6.0 | 11.0 | 0.00 | 0.04 | 0.01 | 50 | 1018.2 |
| 20260506201547 | 61 | 101 | 2.0 | 8.0 | 0.00 | 0.04 | 0.01 | 54 | 1018.2 |
| 20260506200045 | 60 | 32 | 5.0 | 12.0 | 0.00 | 0.04 | 0.01 | 52 | 1018.4 |
| 20260506194546 | 61 | 16 | 4.0 | 12.0 | 0.00 | 0.04 | 0.01 | 52 | 1018.6 |
| 20260506193048 | 59 | 37 | 4.0 | 13.0 | 0.00 | 0.04 | 0.01 | 53 | 1018.8 |
| 20260506191553 | 60 | 39 | 2.0 | 13.0 | 0.00 | 0.04 | 0.01 | 54 | 1019.0 |
| 20260506190050 | 59 | 98 | 3.0 | 13.0 | 0.00 | 0.04 | 0.01 | 56 | 1019.1 |
| 20260506184543 | 59 | 17 | 4.0 | 9.0 | 0.00 | 0.05 | 0.01 | 57 | 1019.3 |
| 20260506183051 | 60 | 93 | 2.0 | 10.0 | 0.00 | 0.05 | 0.01 | 61 | 1019.5 |
| 20260506181601 | 59 | 65 | 2.0 | 10.0 | 0.00 | 0.05 | 0.01 | 56 | 1019.8 |
| 20260506180047 | 59 | 80 | 3.0 | 7.0 | 0.00 | 0.05 | 0.01 | 56 | 1020.2 |
| 20260506174543 | 59 | 32 | 3.0 | 11.0 | 0.00 | 0.05 | 0.01 | 53 | 1020.2 |
| 20260506173104 | 58 | 27 | 5.0 | 12.0 | 0.00 | 0.05 | 0.01 | 55 | 1020.0 |
| 20260506171547 | 58 | 44 | 2.0 | 13.0 | 0.00 | 0.05 | 0.01 | 55 | 1020.2 |
| 20260506170051 | 57 | 89 | 2.0 | 8.0 | 0.00 | 0.05 | 0.01 | 57 | 1020.3 |
| 20260506164543 | 57 | 37 | 3.0 | 10.0 | 0.00 | 0.05 | 0.01 | 57 | 1020.2 |
| 20260506163055 | 56 | 49 | 2.0 | 10.0 | 0.00 | 0.05 | 0.01 | 60 | 1019.8 |
| 20260506161541 | 56 | 338 | 2.0 | 7.0 | 0.00 | 0.05 | 0.01 | 62 | 1019.2 |
| 20260506160050 | 55 | 78 | 2.0 | 8.0 | 0.00 | 0.05 | 0.01 | 60 | 1018.9 |
| 20260506154600 | 55 | 31 | 2.0 | 9.0 | 0.00 | 0.05 | 0.01 | 60 | 1019.0 |
| 20260506153046 | 55 | 98 | 2.0 | 9.0 | 0.00 | 0.05 | 0.01 | 67 | 1019.1 |
| 20260506151544 | 53 | 141 | 2.0 | 8.0 | 0.00 | 0.05 | 0.01 | 66 | 1019.2 |
| 20260506150041 | 53 | 123 | 2.0 | 12.0 | 0.00 | 0.05 | 0.01 | 72 | 1018.9 |
| 20260506144553 | 52 | 93 | 3.0 | 11.0 | 0.00 | 0.06 | 0.01 | 74 | 1018.7 |
| 20260506143050 | 51 | 48 | 3.0 | 8.0 | 0.00 | 0.06 | 0.01 | 74 | 1018.7 |
| 20260506141551 | 49 | 105 | 1.0 | 8.0 | 0.00 | 0.06 | 0.01 | 80 | 1019.1 |
| 20260506140043 | 48 | 135 | 1.0 | 7.0 | 0.00 | 0.06 | 0.01 | 81 | 1019.1 |
| 20260506134550 | 48 | 0 | 0.0 | 4.0 | 0.00 | 0.06 | 0.01 | 82 | 1019.2 |
| 20260506133107 | 47 | 99 | 3.0 | 7.0 | 0.00 | 0.06 | 0.01 | 81 | 1018.9 |
| 20260506131545 | 46 | 89 | 3.0 | 9.0 | 0.00 | 0.06 | 0.01 | 82 | 1018.8 |
| 20260506130044 | 46 | 70 | 3.0 | 6.0 | 0.00 | 0.06 | 0.01 | 84 | 1018.9 |
| 20260506124555 | 46 | 120 | 1.0 | 5.0 | 0.00 | 0.06 | 0.01 | 86 | 1018.7 |
| 20260506123050 | 45 | 68 | 0.0 | 6.0 | 0.00 | 0.06 | 0.01 | 87 | 1019.2 |
| 20260506121547 | 45 | 93 | 0.0 | 5.0 | 0.00 | 0.06 | 0.01 | 88 | 1018.9 |
| 20260506120049 | 45 | 46 | 1.0 | 6.0 | 0.00 | 0.06 | 0.01 | 89 | 1019.0 |
| 20260506114548 | 45 | 22 | 2.0 | 7.0 | 0.00 | 0.06 | 0.01 | 90 | 1018.6 |
| 20260506113043 | 45 | 25 | 3.0 | 6.0 | 0.00 | 0.06 | 0.01 | 91 | 1018.4 |
| 20260506111543 | 45 | 26 | 2.0 | 5.0 | 0.00 | 0.06 | 0.01 | 91 | 1018.4 |
| 20260506110054 | 45 | 27 | 2.0 | 5.0 | 0.00 | 0.06 | 0.01 | 92 | 1017.9 |
| 20260506104614 | 45 | 18 | 3.0 | 7.0 | 0.00 | 0.06 | 0.01 | 92 | 1017.7 |
| 20260506103050 | 45 | 32 | 3.0 | 5.0 | 0.00 | 0.06 | 0.01 | 92 | 1017.3 |